Satellite: XATCOBEO
Catalog number: 38082
Epoch time:      12202.50131067
Element set:     412
Inclination:      069.4877 deg
RA of node:       239.0121 deg
Eccentricity:    0.0728633
Arg of perigee:   205.6779 deg
Mean anomaly:     150.6383 deg
Mean motion:   14.18727716 rev/day
Decay rate:     2.8408e-04 rev/day^2
Epoch rev:            2231
Checksum:              289

/EX
SB KEPS @ AMSAT  $ORB12202.W
Orbital Elements  12202.WEATHER

HR AMSAT ORBITAL ELEMENTS FOR WEATHER SATELLITES
FROM WA5QGD FORT WORTH,TX July 20, 2012
Send SUBSCRIBE KEPS/UNSUBSCRIBE KEPS to majordomo@amsat.org only
BID: ORB12202.W
TO ALL RADIO AMATEURS BT

Satellite: NOAA-10
Catalog number: 16969
Epoch time:      12201.96214895
Element set:    0010
Inclination:      098.5809 deg
RA of node:       230.4304 deg
Eccentricity:    0.0012844
Arg of perigee:   135.8313 deg
Mean anomaly:     224.3896 deg
Mean motion:   14.27564793 rev/day
Decay rate:       1.62e-06 rev/day^2
Epoch rev:           34454
Checksum:              302

Satellite: NOAA-11
Catalog number: 19531
Epoch time:      12201.74317363
Element set:    0996
Inclination:      098.7333 deg
RA of node:       286.2174 deg
Eccentricity:    0.0011935
Arg of perigee:   128.9427 deg
Mean anomaly:     231.2809 deg
Mean motion:   14.14972578 rev/day
Decay rate:      -1.82e-06 rev/day^2
Epoch rev:           22911
Checksum:              310

Satellite: NOAA-12
Catalog number: 21263
Epoch time:      12201.96667966
Element set:    0499
Inclination:      098.7274 deg
RA of node:       223.4753 deg
Eccentricity:    0.0014793
Arg of perigee:   105.0643 deg
Mean anomaly:     255.2177 deg
Mean motion:   14.25507388 rev/day
Decay rate:        1.7e-07 rev/day^2
Epoch rev:           10122
Checksum:              303

Satellite: MET-3/5
Catalog number: 21655
Epoch time:      12201.43533565
Element set:    0001
Inclination:      082.5582 deg
RA of node:       129.4107 deg
Eccentricity:    0.0012335
Arg of perigee:   238.9263 deg
Mean anomaly:     121.0649 deg
Mean motion:   13.17037280 rev/day
Decay rate:       3.09e-06 rev/day^2
Epoch rev:           00589
Checksum:              268

Satellite: MET-2/21
Catalog number: 22782
Epoch time:      12201.84114151
Element set:    0477
Inclination:      082.5463 deg
RA of node:       006.5989 deg
Eccentricity:    0.0023885
Arg of perigee:   063.2002 deg
Mean anomaly:     297.1604 deg
Mean motion:   13.83685328 rev/day
Decay rate:        2.9e-07 rev/day^2
Epoch rev:           95368
Checksum:              308

Satellite: OKEAN-4
Catalog number: 23317
Epoch time:      12202.88388509
Element set:     947
Inclination:      082.5387 deg
RA of node:       359.6952 deg
Eccentricity:    0.0019861
Arg of perigee:   238.6996 deg
Mean anomaly:     121.2274 deg
Mean motion:   14.83854467 rev/day
Decay rate:       6.67e-06 rev/day^2
Epoch rev:           95980
Checksum:              365

Satellite: NOAA-14
Catalog number: 23455
Epoch time:      12201.95294684
Element set:    0980
Inclination:      098.8261 deg
RA of node:       285.0400 deg
Eccentricity:    0.0008733
Arg of perigee:   223.2805 deg
Mean anomaly:     136.7677 deg
Mean motion:   14.13908722 rev/day
Decay rate:      -1.34e-06 rev/day^2
Epoch rev:           90542
Checksum:              303

Satellite: NOAA-15
Catalog number: 25338
Epoch time:      12201.63457484
Element set:    0339
Inclination:      098.6909 deg
RA of node:       188.2394 deg
Eccentricity:    0.0011081
Arg of perigee:   019.9400 deg
Mean anomaly:     340.2198 deg
Mean motion:   14.25096418 rev/day
Decay rate:       2.17e-06 rev/day^2
Epoch rev:           73747
Checksum:              314

Satellite: RESURS
Catalog number: 25394
Epoch time:      12201.92768328
Element set:     140
Inclination:      098.3218 deg
RA of node:       188.4443 deg
Eccentricity:    0.0001946
Arg of perigee:   115.3927 deg
Mean anomaly:     244.7455 deg
Mean motion:   14.24290885 rev/day
Decay rate:        4.2e-07 rev/day^2
Epoch rev:           72906
Checksum:              304

Satellite: FENGYUN1
Catalog number: 25730
Epoch time:      12202.92977473
Element set:     653
Inclination:      098.8467 deg
RA of node:       161.3274 deg
Eccentricity:    0.0017842
Arg of perigee:   270.1222 deg
Mean anomaly:     089.7899 deg
Mean motion:   14.09672721 rev/day
Decay rate:       8.78e-06 rev/day^2
Epoch rev:           67936
Checksum:              343

Satellite: OKEAN-0
Catalog number: 25860
Epoch time:      12201.90753524
Element set:    0702
Inclination:      097.9387 deg
RA of node:       163.8868 deg
Eccentricity:    0.0001595
Arg of perigee:   096.3730 deg
Mean anomaly:     263.7660 deg
Mean motion:   14.74245218 rev/day
Decay rate:       3.98e-06 rev/day^2
Epoch rev:           69939
Checksum:              336

Satellite: NOAA-16
Catalog number: 26536
Epoch time:      12201.68663361
Element set:    0826
Inclination:      099.0911 deg
RA of node:       244.3075 deg
Eccentricity:    0.0010338
Arg of perigee:   357.8181 deg
Mean anomaly:     002.2948 deg
Mean motion:   14.12760478 rev/day
Decay rate:       2.56e-06 rev/day^2
Epoch rev:           60962
Checksum:              303

